When you browse on this site, cookies collect data to enhance your experience and personalize the content and advertising you see.
Visit our Privacy Policy to learn more. By continuing to use the site, you agree to this use of cookies and data.
  • en Suisse
  • Liste des pays
  • À 7 jours
  • Température de l'eau
  • Carte météo
  • Widgets météo
  • user-avatar
    Se connecter

    Météo par heure à Senovo

    Ce jour, 13 Décembre, Vendredi

    Heure Température Précipitation Vent Pression Humidité
    00:00 0°C° 0 mm 5 m/s 750 mmHg 83%
    01:00 0°C° 0 mm 5 m/s 750 mmHg 83%
    02:00 0°C° 0 mm 5 m/s 750 mmHg 84%
    03:00 0°C° 0 mm 5 m/s 750 mmHg 85%
    04:00 0°C° 0 mm 5 m/s 750 mmHg 85%
    05:00 0°C° 0 mm 5 m/s 750 mmHg 86%
    06:00 0°C° 0 mm 4 m/s 750 mmHg 86%
    07:00 0°C° 0 mm 4 m/s 750 mmHg 87%
    08:00 0°C° 0 mm 4 m/s 750 mmHg 88%
    09:00 0°C° 0 mm 4 m/s 750 mmHg 89%
    10:00 0°C° 0 mm 4 m/s 750 mmHg 89%
    11:00 -1°C° 0 mm 4 m/s 750 mmHg 90%
    12:00 -1°C° 0 mm 4 m/s 749 mmHg 90%
    13:00 -1°C° 0 mm 4 m/s 749 mmHg 89%
    14:00 -1°C° 0 mm 4 m/s 749 mmHg 89%
    15:00 -1°C° 0 mm 4 m/s 749 mmHg 88%
    16:00 -1°C° 0 mm 4 m/s 748 mmHg 88%
    17:00 -1°C° 0 mm 4 m/s 748 mmHg 88%
    18:00 -1°C° 0 mm 4 m/s 748 mmHg 89%
    19:00 -1°C° 0 mm 4 m/s 748 mmHg 90%
    20:00 -1°C° 0 mm 5 m/s 748 mmHg 91%
    21:00 -1°C° 0 mm 5 m/s 748 mmHg 91%
    22:00 -1°C° 0 mm 5 m/s 748 mmHg 92%
    23:00 -1°C° 0 mm 5 m/s 748 mmHg 92%

    Demain, 14 Décembre, Samedi

    Heure Température Précipitation Vent Pression Humidité
    00:00 -1°C° 0 mm 5 m/s 748 mmHg 91%
    01:00 -1°C° 0 mm 5 m/s 748 mmHg 91%
    02:00 -1°C° 0 mm 5 m/s 748 mmHg 91%
    03:00 -1°C° 0 mm 5 m/s 748 mmHg 89%
    04:00 -1°C° 0 mm 5 m/s 747 mmHg 88%
    05:00 -1°C° 0 mm 5 m/s 747 mmHg 87%
    06:00 -1°C° 0 mm 5 m/s 747 mmHg 86%
    07:00 -1°C° 0 mm 5 m/s 747 mmHg 84%
    08:00 -1°C° 0 mm 5 m/s 747 mmHg 83%
    09:00 -1°C° 0 mm 5 m/s 748 mmHg 83%
    10:00 -1°C° 0 mm 5 m/s 748 mmHg 83%
    11:00 0°C° 0 mm 5 m/s 748 mmHg 83%
    12:00 0°C° 0 mm 5 m/s 747 mmHg 83%
    13:00 0°C° 0 mm 5 m/s 747 mmHg 83%
    14:00 0°C° 0 mm 5 m/s 747 mmHg 83%
    15:00 0°C° 0 mm 5 m/s 747 mmHg 84%
    16:00 0°C° 0 mm 5 m/s 747 mmHg 84%
    17:00 0°C° 0 mm 5 m/s 747 mmHg 85%
    18:00 0°C° 0 mm 5 m/s 746 mmHg 88%
    19:00 0°C° 0 mm 5 m/s 746 mmHg 92%
    20:00 0°C° 0 mm 5 m/s 746 mmHg 95%
    21:00 +1°C° 0 mm 5 m/s 746 mmHg 93%
    22:00 +1°C° 0 mm 5 m/s 745 mmHg 92%
    23:00 +2°C° 0 mm 5 m/s 745 mmHg 91%

    Après-demain, 15 Décembre, Dimanche

    Heure Température Précipitation Vent Pression Humidité
    00:00 +2°C° 0.1 mm 5 m/s 745 mmHg 91%
    01:00 +2°C° 0.1 mm 5 m/s 745 mmHg 91%
    02:00 +2°C° 0.1 mm 5 m/s 744 mmHg 91%
    03:00 +2°C° 0.2 mm 5 m/s 744 mmHg 91%
    04:00 +2°C° 0.2 mm 5 m/s 743 mmHg 91%
    05:00 +2°C° 0.2 mm 5 m/s 742 mmHg 91%
    06:00 +2°C° 0.1 mm 5 m/s 742 mmHg 91%
    07:00 +2°C° 0.1 mm 5 m/s 742 mmHg 91%
    08:00 +2°C° 0.1 mm 5 m/s 742 mmHg 92%
    09:00 +2°C° 0.7 mm 5 m/s 742 mmHg 93%
    10:00 +1°C° 0.7 mm 6 m/s 742 mmHg 94%
    11:00 +1°C° 0.7 mm 6 m/s 743 mmHg 95%
    12:00 +1°C° 0.1 mm 6 m/s 743 mmHg 90%
    13:00 +1°C° 0.1 mm 6 m/s 744 mmHg 86%
    14:00 +1°C° 0.1 mm 5 m/s 745 mmHg 81%
    15:00 +1°C° 0 mm 5 m/s 745 mmHg 81%
    16:00 +1°C° 0 mm 5 m/s 745 mmHg 81%
    17:00 +1°C° 0 mm 5 m/s 746 mmHg 81%
    18:00 0°C° 0 mm 5 m/s 746 mmHg 82%
    19:00 0°C° 0 mm 5 m/s 746 mmHg 83%
    20:00 -1°C° 0 mm 4 m/s 745 mmHg 83%
    21:00 0°C° 0.4 mm 5 m/s 745 mmHg 88%
    22:00 0°C° 0.4 mm 5 m/s 745 mmHg 92%
    23:00 0°C° 0.4 mm 5 m/s 744 mmHg 96%

    16 Décembre, Lundi

    Heure Température Précipitation Vent Pression Humidité
    00:00 0°C° 0.5 mm 5 m/s 744 mmHg 92%
    01:00 +1°C° 0.5 mm 5 m/s 744 mmHg 88%
    02:00 +2°C° 0.5 mm 5 m/s 745 mmHg 84%
    03:00 +2°C° 0 mm 6 m/s 745 mmHg 82%
    04:00 +2°C° 0 mm 6 m/s 745 mmHg 79%
    05:00 +2°C° 0 mm 7 m/s 746 mmHg 77%
    06:00 +2°C° 0 mm 7 m/s 746 mmHg 76%
    07:00 +1°C° 0 mm 8 m/s 746 mmHg 74%
    08:00 +1°C° 0 mm 8 m/s 746 mmHg 72%
    09:00 +1°C° 0 mm 8 m/s 747 mmHg 71%
    10:00 +1°C° 0 mm 8 m/s 747 mmHg 70%
    11:00 +2°C° 0 mm 9 m/s 748 mmHg 69%
    12:00 +2°C° 0 mm 8 m/s 749 mmHg 70%
    13:00 +3°C° 0 mm 7 m/s 749 mmHg 71%
    14:00 +3°C° 0 mm 7 m/s 750 mmHg 71%
    15:00 +2°C° 0 mm 6 m/s 751 mmHg 76%
    16:00 +2°C° 0 mm 5 m/s 751 mmHg 80%
    17:00 +3°C° 0 mm 4 m/s 752 mmHg 84%
    18:00 +1°C° 0 mm 4 m/s 752 mmHg 85%
    19:00 +1°C° 0 mm 4 m/s 753 mmHg 85%
    20:00 +1°C° 0 mm 4 m/s 753 mmHg 86%
    21:00 0°C° 0 mm 4 m/s 753 mmHg 86%
    22:00 0°C° 0 mm 4 m/s 753 mmHg 86%
    23:00 -1°C° 0 mm 4 m/s 753 mmHg 86%

    17 Décembre, Mardi

    Heure Température Précipitation Vent Pression Humidité
    00:00 -1°C° 0 mm 4 m/s 753 mmHg 86%
    01:00 -1°C° 0 mm 4 m/s 753 mmHg 86%
    02:00 -1°C° 0 mm 4 m/s 753 mmHg 87%
    03:00 0°C° 0 mm 4 m/s 753 mmHg 87%
    04:00 0°C° 0 mm 4 m/s 753 mmHg 88%
    05:00 +1°C° 0 mm 3 m/s 753 mmHg 89%
    06:00 +1°C° 0 mm 3 m/s 753 mmHg 91%
    07:00 +2°C° 0 mm 3 m/s 753 mmHg 92%
    08:00 +2°C° 0 mm 3 m/s 753 mmHg 94%
    09:00 +3°C° 0 mm 2 m/s 753 mmHg 94%
    10:00 +3°C° 0 mm 2 m/s 753 mmHg 93%
    11:00 +4°C° 0 mm 2 m/s 754 mmHg 92%
    12:00 +4°C° 0 mm 2 m/s 753 mmHg 93%
    13:00 +4°C° 0 mm 2 m/s 753 mmHg 93%
    14:00 +4°C° 0 mm 2 m/s 753 mmHg 93%
    15:00 +4°C° 0.2 mm 2 m/s 753 mmHg 94%
    16:00 +4°C° 0.2 mm 2 m/s 753 mmHg 96%
    17:00 +4°C° 0.2 mm 2 m/s 753 mmHg 97%
    18:00 +4°C° 0.1 mm 2 m/s 752 mmHg 97%
    19:00 +4°C° 0.1 mm 2 m/s 752 mmHg 96%
    20:00 +4°C° 0.1 mm 2 m/s 752 mmHg 96%
    21:00 +4°C° 0 mm 2 m/s 752 mmHg 96%
    22:00 +4°C° 0 mm 2 m/s 752 mmHg 95%
    23:00 +3°C° 0 mm 3 m/s 753 mmHg 94%

    18 Décembre, Mercredi

    Heure Température Précipitation Vent Pression Humidité
    00:00 +4°C° 0.1 mm 2 m/s 752 mmHg 95%
    01:00 +4°C° 0.1 mm 2 m/s 752 mmHg 95%
    02:00 +4°C° 0.1 mm 2 m/s 752 mmHg 96%
    03:00 +4°C° 0.4 mm 2 m/s 752 mmHg 96%
    04:00 +4°C° 0.4 mm 2 m/s 752 mmHg 96%
    05:00 +4°C° 0.4 mm 2 m/s 751 mmHg 96%
    06:00 +4°C° 0.1 mm 2 m/s 751 mmHg 95%
    07:00 +4°C° 0.1 mm 2 m/s 751 mmHg 95%
    08:00 +4°C° 0.1 mm 2 m/s 751 mmHg 95%
    09:00 +4°C° 0 mm 2 m/s 751 mmHg 94%
    10:00 +4°C° 0 mm 2 m/s 751 mmHg 94%
    11:00 +3°C° 0 mm 3 m/s 751 mmHg 93%
    12:00 +3°C° 0 mm 3 m/s 751 mmHg 93%
    13:00 +3°C° 0 mm 3 m/s 750 mmHg 92%
    14:00 +3°C° 0 mm 3 m/s 750 mmHg 92%
    15:00 +3°C° 0 mm 3 m/s 750 mmHg 93%
    16:00 +3°C° 0 mm 3 m/s 750 mmHg 93%
    17:00 +3°C° 0 mm 3 m/s 750 mmHg 94%
    18:00 +3°C° 0 mm 3 m/s 749 mmHg 93%
    19:00 +3°C° 0 mm 3 m/s 749 mmHg 92%
    20:00 +3°C° 0 mm 4 m/s 748 mmHg 92%
    21:00 +4°C° 0 mm 4 m/s 748 mmHg 90%
    22:00 +3°C° 0 mm 5 m/s 747 mmHg 89%
    23:00 +3°C° 0 mm 5 m/s 746 mmHg 87%
    Voir plus